Location: Nashville
(36.1660°N, 86.7840°W)
Time: 20:49:42
(UTC-05:00)

Tiros 1 - Pass Details

Date: 31 January 2022
Orbit: 629 x 663 km, 48.4° (Epoch: 27 May)

Event Time Altitude Azimuth Distance (km) Brightness Sun altitude
Rises 19:22:17 0° 231° (SW) 2,970 11.4 -26.3°
Reaches altitude 10° 19:24:37 10° 231° (SW) 2,065 10.4 -26.8°
Enters shadow 19:28:27 58° 228° (SW) 769 7.6 -27.5°
